[Iaude] MPEC X53: 2023 XR [a=1.90,e=0.61,i=6.9,H=25.7]

mpec at marsden.cfa.harvard.edu mpec at marsden.cfa.harvard.edu
Tue Dec 5 02:27:59 EST 2023


M.P.E.C. 2023-X53                              Issued 2023 December 5, 07:26 UT

     The Minor Planet Electronic Circulars contain information on unusual
         minor planets, routine data on comets and natural satellites,
         and occasional editorial announcements.  They are published
    on behalf of Division F of the International Astronomical Union by the
          Minor Planet Center, Smithsonian Astrophysical Observatory,
                          Cambridge, MA 02138, U.S.A.
			  
             Prepared using the Tamkin Foundation Computer Network

                              MPC at CFA.HARVARD.EDU
            URL https://www.minorplanetcenter.net/    ISSN 1523-6714

                                    2023 XR                                     


Observations:
     K23X00R*1C2023 12 03.15152602 35 45.985+32 33 11.20         20.46GVEX053G96
     K23X00R 1C2023 12 03.15714702 35 39.689+32 34 08.54         20.65GVEX053G96
     K23X00R 1C2023 12 03.16276402 35 33.349+32 35 05.42         21.01GVEX053G96
     K23X00R 1C2023 12 03.16838002 35 27.010+32 36 02.38         20.84GVEX053G96
     K23X00R KC2023 12 03.23680202 34 07.830+32 47 39.30         20.97GVEX053I52
     K23X00R KC2023 12 03.23850102 34 05.830+32 47 56.70         21.03GVEX053I52
     K23X00R KC2023 12 03.24020802 34 03.840+32 48 14.30         21.13GVEX053I52
     K23X00R KC2023 12 03.24363602 33 59.850+32 48 48.70         20.31GVEX053I52
     K23X00R 1C2023 12 04.21470702 13 03.410+35 48 41.83         20.91GVEX053G96
     K23X00R 1C2023 12 04.21491302 13 03.090+35 48 44.21         20.40GVEX053G96
     K23X00R 1C2023 12 04.21512002 13 02.752+35 48 46.58         20.79GVEX053G96
     K23X00R 1C2023 12 04.21532702 13 02.377+35 48 49.54         20.67GVEX053G96
     K23X00R  C2023 12 05.24219001 42 07.321+39 28 22.05         20.6 GVEX053H01
     K23X00R  C2023 12 05.24560401 41 59.735+39 29 07.34         20.3 GVEX053H01
     K23X00R  C2023 12 05.25313801 41 42.991+39 30 46.83         20.5 GVEX053H01
     K23X00R  C2023 12 05.26395201 41 18.894+39 33 09.49         20.5 GVEX053H01

Observer details:
G96 Mt. Lemmon Survey.  Observers H. Groeller, J. K. Hogan.  Measurers E. C.
    Beshore, D. Fay, J. B. Fazekas, D. C. Fuls, A. R. Gibbs, A. D. Grauer, H.
    Groeller, J. K. Hogan, R. A. Kowalski, S. M. Larson, G. J. Leonard, D.
    Rankin, R. L. Seaman, F. C. Shelly, K. W. Wierzchos.  1.5-m reflector +
    10K CCD.
H01 Magdalena Ridge Observatory, Socorro.  Observers W. H. Ryan, E. V. Ryan.
    Measurer W. H. Ryan.  2.4-m f/8.9 Ritchey-Chretien + CCD.
I52 Steward Observatory, Mt. Lemmon Station.  Observer R. A. Kowalski.
    Measurers E. C. Beshore, D. Fay, J. B. Fazekas, D. C. Fuls, A. R. Gibbs,
    A. D. Grauer, H. Groeller, J. K. Hogan, R. A. Kowalski, S. M. Larson, G.
    J. Leonard, D. Rankin, R. L. Seaman, F. C. Shelly, K. W. Wierzchos.  1.0-m
    prime focus + CCD.

Orbital elements:
2023 XR                                                  Earth MOID = 0.0289 AU
Epoch 2023 Sept. 13.0 TT = JDT 2460200.5                MPC                     
M 310.57777              (2000.0)            P               Q                  
n   0.37697704     Peri.   85.14407     -0.82287066     -0.55855195             
a   1.8978394      Node    60.86358     +0.46237323     -0.76499219             
e   0.6123041      Incl.    6.86598     +0.33029513     -0.32063478             
P   2.61           H   25.77          G   0.15           U   9                  
Residuals in seconds of arc
231203 G96  1.2-  0.4+    231203 I52  0.1-  0.2+    231205 H01  0.1+  0.0
231203 G96  0.1-  0.3+    231203 I52  0.1+  0.2-    231205 H01  0.0   0.1+
231203 G96  0.5+  0.2-    231204 G96  0.1+  0.1+    231205 H01  0.0   0.0
231203 G96  1.4+  0.5-    231204 G96  0.2+  0.0     231205 H01  0.2-  0.1-
231203 I52  0.0   0.2-    231204 G96  0.0   0.1-
231203 I52  0.1-  0.1-    231204 G96  0.6-  0.4+

Ephemeris:
2023 XR                  a,e,i = 1.90, 0.61, 7                   q = 0.7358
Date    TT    R. A. (2000) Decl.     Delta      r    Elong.  Phase     V
2023 11 05    04 06 04.1 +14 21 16   0.3380  1.3124   158.7    15.9    24.9
...
2023 11 20    03 53 24.2 +17 35 38   0.1800  1.1679   176.1     3.3    22.7
...
2023 11 28    03 27 37.9 +23 08 58   0.1058  1.0908   169.3     9.6    21.7
...
2023 12 04    02 18 17.7 +35 06 09   0.05702 1.0339   146.8    31.5    21.0
2023 12 05    01 50 32.4 +38 34 02   0.05030 1.0245   139.8    38.3    20.9
2023 12 06    01 11 09.2 +42 20 38   0.04443 1.0152   131.1    47.0    20.8
...
2023 12 12    18 56 25.2 +27 54 23   0.04545 0.9604    56.6   121.1    23.9
...
2023 12 20    17 18 31.4 +04 39 36   0.1070  0.8919    29.0   147.6    28.7
...
2024 01 04    16 54 17.5 -05 33 03   0.2509  0.7878    33.9   135.8    28.6

A. U. Tomatic                (C) Copyright 2023 MPC           M.P.E.C. 2023-X53





More information about the Iaude mailing list